Time,TemperatureF,DewpointF,PressureIn,WindDirection,WindDirectionDegrees,WindSpeedMPH,WindSpeedGustMPH,Humidity,HourlyPrecipIn,Conditions,Clouds,dailyrainin,SoftwareType,DateUTC
2013-02-02 00:00:00,18.1,11.2,30.18,WSW,250,4.0,8.0,74,0.00,,BKN060,0.00,VWS V14.01,2013-02-02 05:00:00,
2013-02-02 00:01:00,18.1,11.2,30.18,WSW,245,5.0,8.0,74,0.00,,BKN060,0.00,VWS V14.01,2013-02-02 05:01:00,
2013-02-02 00:06:00,18.0,11.4,30.18,WSW,257,5.0,7.0,75,0.00,,BKN060,0.00,VWS V14.01,2013-02-02 05:06:00,
2013-02-02 00:12:00,18.0,11.4,30.18,WSW,239,6.0,7.0,75,0.00,,BKN060,0.00,VWS V14.01,2013-02-02 05:12:00,
2013-02-02 00:17:00,18.0,11.7,30.18,WSW,255,4.0,7.0,76,0.00,,BKN060,0.00,VWS V14.01,2013-02-02 05:17:00,
2013-02-02 00:22:00,17.9,11.9,30.18,WSW,257,4.0,7.0,77,0.00,,BKN060,0.00,VWS V14.01,2013-02-02 05:22:00,
2013-02-02 00:27:00,17.9,12.2,30.18,West,259,3.0,7.0,78,0.00,,BKN060,0.00,VWS V14.01,2013-02-02 05:27:00,
2013-02-02 00:30:00,17.0,10.8,30.18,West,259,5.0,10.0,76,0.00,,OVC,0.00,VWS V14.01,2013-02-02 05:30:00,
2013-02-02 00:32:00,17.8,12.4,30.18,WSW,249,2.0,7.0,79,0.00,,BKN060,0.00,VWS V14.01,2013-02-02 05:32:00,
2013-02-02 00:37:00,17.7,12.6,30.18,WSW,245,5.0,5.0,80,0.00,,BKN060,0.00,VWS V14.01,2013-02-02 05:37:00,
2013-02-02 00:42:00,17.5,12.4,30.18,WSW,246,2.0,5.0,80,0.00,,BKN060,0.00,VWS V14.01,2013-02-02 05:42:00,
2013-02-02 00:47:00,17.4,12.6,30.19,West,270,3.0,5.0,81,0.00,,OVC060,0.00,VWS V14.01,2013-02-02 05:47:00,
2013-02-02 00:52:00,17.3,12.5,30.18,West,266,4.0,5.0,81,0.00,,OVC060,0.00,VWS V14.01,2013-02-02 05:52:00,
2013-02-02 00:58:00,17.3,12.2,30.18,West,259,5.0,6.0,80,0.00,,OVC060,0.00,VWS V14.01,2013-02-02 05:58:00,
2013-02-02 01:00:00,16.8,11.7,30.19,WSW,257,2.0,6.0,80,0.00,,OVC,0.00,VWS V14.01,2013-02-02 06:00:00,
2013-02-02 01:03:00,17.3,11.6,30.18,West,259,2.0,3.0,78,0.00,,OVC060,0.00,VWS V14.01,2013-02-02 06:03:00,
2013-02-02 01:08:00,17.3,11.6,30.18,WSW,249,3.0,6.0,78,0.00,,OVC060,0.00,VWS V14.01,2013-02-02 06:08:00,
2013-02-02 01:13:00,17.3,11.3,30.18,West,264,4.0,6.0,77,0.00,,OVC060,0.00,VWS V14.01,2013-02-02 06:13:00,
2013-02-02 01:18:00,17.3,11.3,30.18,WSW,257,3.0,6.0,77,0.00,,OVC060,0.00,VWS V14.01,2013-02-02 06:18:00,
2013-02-02 01:23:00,17.1,11.1,30.18,West,270,4.0,6.0,77,0.00,,OVC060,0.00,VWS V14.01,2013-02-02 06:23:00,
2013-02-02 01:28:00,17.0,10.8,30.18,West,274,2.0,7.0,76,0.00,,OVC060,0.00,VWS V14.01,2013-02-02 06:28:00,
2013-02-02 01:30:00,16.0,10.6,30.18,WSW,256,4.0,5.0,79,0.00,,OVC,0.00,VWS V14.01,2013-02-02 06:30:00,
2013-02-02 01:33:00,17.0,10.8,30.18,WSW,247,4.0,6.0,76,0.00,,OVC060,0.00,VWS V14.01,2013-02-02 06:33:00,
2013-02-02 01:38:00,17.0,10.8,30.18,WSW,245,4.0,6.0,76,0.00,,OVC060,0.00,VWS V14.01,2013-02-02 06:38:00,
2013-02-02 01:44:00,17.0,10.8,30.18,WSW,252,4.0,6.0,76,0.00,,OVC060,0.00,VWS V14.01,2013-02-02 06:44:00,
2013-02-02 01:49:00,17.0,10.5,30.18,West,262,3.0,6.0,75,0.00,,OVC055,0.00,VWS V14.01,2013-02-02 06:49:00,
2013-02-02 01:54:00,17.0,11.1,30.19,WSW,245,2.0,6.0,77,0.00,,OVC055,0.00,VWS V14.01,2013-02-02 06:54:00,
2013-02-02 01:59:00,16.8,11.4,30.19,WSW,252,1.0,6.0,79,0.00,,OVC055,0.00,VWS V14.01,2013-02-02 06:59:00,
2013-02-02 02:00:00,14.7,8.5,30.17,SW,236,6.0,8.0,76,0.00,,OVC,0.00,VWS V14.01,2013-02-02 07:00:00,
2013-02-02 02:04:00,16.7,11.6,30.18,WSW,242,4.0,5.0,80,0.00,,OVC055,0.00,VWS V14.01,2013-02-02 07:04:00,
2013-02-02 02:09:00,16.6,11.8,30.19,West,266,2.0,5.0,81,0.00,,OVC055,0.00,VWS V14.01,2013-02-02 07:09:00,
2013-02-02 02:14:00,16.4,11.9,30.18,WSW,238,3.0,5.0,82,0.00,,OVC055,0.00,VWS V14.01,2013-02-02 07:14:00,
2013-02-02 02:20:00,16.2,11.4,30.18,WSW,248,3.0,5.0,81,0.00,,OVC055,0.00,VWS V14.01,2013-02-02 07:20:00,
2013-02-02 02:25:00,16.1,11.3,30.18,West,273,2.0,5.0,81,0.00,,OVC055,0.00,VWS V14.01,2013-02-02 07:25:00,
2013-02-02 02:30:00,16.0,10.6,30.18,West,279,4.0,5.0,79,0.00,,OVC055,0.00,VWS V14.01,2013-02-02 07:30:00,
2013-02-02 02:35:00,16.0,10.4,30.18,West,263,5.0,5.0,78,0.00,,OVC055,0.00,VWS V14.01,2013-02-02 07:35:00,
2013-02-02 02:40:00,15.8,9.9,30.18,West,266,3.0,5.0,77,0.00,,OVC055,0.00,VWS V14.01,2013-02-02 07:40:00,
2013-02-02 02:45:00,15.6,9.7,30.18,WSW,257,5.0,6.0,77,0.00,,OVC048,0.00,VWS V14.01,2013-02-02 07:45:00,
2013-02-02 02:50:00,15.3,9.1,30.18,WSW,245,5.0,6.0,76,0.00,,OVC048,0.00,VWS V14.01,2013-02-02 07:50:00,
2013-02-02 02:56:00,15.1,8.9,30.18,WSW,255,5.0,8.0,76,0.00,,OVC048,0.00,VWS V14.01,2013-02-02 07:56:00,
2013-02-02 03:00:00,13.4,7.3,30.16,WSW,242,4.0,9.0,76,0.00,,OVC,0.00,VWS V14.01,2013-02-02 08:00:00,
2013-02-02 03:01:00,14.8,8.6,30.17,West,262,4.0,8.0,76,0.00,,OVC048,0.00,VWS V14.01,2013-02-02 08:01:00,
2013-02-02 03:06:00,14.7,8.5,30.17,WSW,256,5.0,8.0,76,0.00,,OVC048,0.00,VWS V14.01,2013-02-02 08:06:00,
2013-02-02 03:11:00,14.5,8.3,30.17,WSW,245,5.0,8.0,76,0.00,,OVC048,0.00,VWS V14.01,2013-02-02 08:11:00,
2013-02-02 03:16:00,14.4,7.9,30.17,WSW,247,7.0,11.0,75,0.00,,OVC048,0.00,VWS V14.01,2013-02-02 08:16:00,
2013-02-02 03:21:00,14.3,7.8,30.17,WSW,249,5.0,11.0,75,0.00,,OVC048,0.00,VWS V14.01,2013-02-02 08:21:00,
2013-02-02 03:26:00,14.1,7.7,30.17,WSW,243,6.0,11.0,75,0.00,,OVC048,0.00,VWS V14.01,2013-02-02 08:26:00,
2013-02-02 03:30:00,13.5,7.1,30.16,WSW,248,4.0,10.0,75,0.00,,OVC,0.00,VWS V14.01,2013-02-02 08:30:00,
2013-02-02 03:31:00,13.9,7.4,30.17,WSW,253,5.0,11.0,75,0.00,,OVC048,0.00,VWS V14.01,2013-02-02 08:31:00,
2013-02-02 03:36:00,13.9,7.4,30.17,West,270,6.0,9.0,75,0.00,,OVC048,0.00,VWS V14.01,2013-02-02 08:36:00,
2013-02-02 03:41:00,13.8,7.4,30.16,WSW,248,3.0,9.0,75,0.00,,OVC048,0.00,VWS V14.01,2013-02-02 08:41:00,
2013-02-02 03:47:00,13.6,7.2,30.16,WSW,256,2.0,9.0,75,0.00,,FEW033,0.00,VWS V14.01,2013-02-02 08:47:00,
2013-02-02 03:52:00,13.4,7.3,30.16,WSW,252,3.0,9.0,76,0.00,,FEW033,0.00,VWS V14.01,2013-02-02 08:52:00,
2013-02-02 03:57:00,13.4,7.3,30.16,West,259,3.0,9.0,76,0.00,,FEW033,0.00,VWS V14.01,2013-02-02 08:57:00,
2013-02-02 04:00:00,13.9,7.2,30.15,WSW,242,5.0,8.0,74,0.00,,OVC,0.00,VWS V14.01,2013-02-02 09:00:00,
2013-02-02 04:02:00,13.4,7.3,30.16,WSW,249,5.0,9.0,76,0.00,,FEW033,0.00,VWS V14.01,2013-02-02 09:02:00,
2013-02-02 04:07:00,13.4,7.3,30.16,WSW,239,7.0,8.0,76,0.00,,FEW033,0.00,VWS V14.01,2013-02-02 09:07:00,
2013-02-02 04:12:00,13.4,7.0,30.16,WSW,254,5.0,10.0,75,0.00,,FEW033,0.00,VWS V14.01,2013-02-02 09:12:00,
2013-02-02 04:17:00,13.5,7.1,30.16,WSW,247,5.0,10.0,75,0.00,,FEW033,0.00,VWS V14.01,2013-02-02 09:17:00,
2013-02-02 04:22:00,13.5,7.1,30.16,WSW,245,4.0,10.0,75,0.00,,FEW033,0.00,VWS V14.01,2013-02-02 09:22:00,
2013-02-02 04:28:00,13.5,7.1,30.16,WSW,250,4.0,10.0,75,0.00,,FEW033,0.00,VWS V14.01,2013-02-02 09:28:00,
2013-02-02 04:30:00,14.2,7.2,30.15,WSW,255,6.0,8.0,73,0.00,,OVC,0.00,VWS V14.01,2013-02-02 09:30:00,
2013-02-02 04:33:00,13.4,7.0,30.16,WSW,246,4.0,5.0,75,0.00,,FEW033,0.00,VWS V14.01,2013-02-02 09:33:00,
2013-02-02 04:38:00,13.4,7.0,30.16,WSW,248,8.0,8.0,75,0.00,,FEW033,0.00,VWS V14.01,2013-02-02 09:38:00,
2013-02-02 04:43:00,13.4,7.0,30.16,WSW,244,6.0,8.0,75,0.00,,FEW033,0.00,VWS V14.01,2013-02-02 09:43:00,
2013-02-02 04:48:00,13.6,7.2,30.16,SW,236,3.0,8.0,75,0.00,,FEW047,0.00,VWS V14.01,2013-02-02 09:48:00,
2013-02-02 04:53:00,13.7,7.3,30.15,WSW,238,3.0,8.0,75,0.00,,FEW047,0.00,VWS V14.01,2013-02-02 09:53:00,
2013-02-02 04:58:00,13.8,7.1,30.15,WSW,248,4.0,8.0,74,0.00,,FEW047,0.00,VWS V14.01,2013-02-02 09:58:00,
2013-02-02 05:00:00,14.3,6.9,30.15,WSW,253,5.0,10.0,72,0.00,,OVC,0.00,VWS V14.01,2013-02-02 10:00:00,
2013-02-02 05:03:00,13.9,7.2,30.15,WSW,245,4.0,5.0,74,0.00,,FEW047,0.00,VWS V14.01,2013-02-02 10:03:00,
2013-02-02 05:08:00,14.0,7.2,30.15,WSW,245,5.0,8.0,74,0.00,,FEW047,0.00,VWS V14.01,2013-02-02 10:08:00,
2013-02-02 05:14:00,14.3,7.2,30.15,West,259,4.0,8.0,73,0.00,,FEW047,0.00,VWS V14.01,2013-02-02 10:14:00,
2013-02-02 05:19:00,14.3,7.2,30.15,SW,228,5.0,8.0,73,0.00,,FEW047,0.00,VWS V14.01,2013-02-02 10:19:00,
2013-02-02 05:24:00,14.3,7.2,30.15,WSW,249,4.0,8.0,73,0.00,,FEW047,0.00,VWS V14.01,2013-02-02 10:24:00,
2013-02-02 05:29:00,14.3,7.2,30.15,WSW,247,5.0,8.0,73,0.00,,FEW047,0.00,VWS V14.01,2013-02-02 10:29:00,
2013-02-02 05:30:00,14.4,7.0,30.14,WNW,284,6.0,9.0,72,0.00,,OVC,0.00,VWS V14.01,2013-02-02 10:30:00,
2013-02-02 05:34:00,14.2,7.2,30.15,WSW,245,5.0,6.0,73,0.00,,FEW047,0.00,VWS V14.01,2013-02-02 10:34:00,
2013-02-02 05:39:00,14.3,7.2,30.15,NW,312,2.0,9.0,73,0.00,,FEW047,0.00,VWS V14.01,2013-02-02 10:39:00,
2013-02-02 05:44:00,14.2,6.8,30.15,WSW,250,6.0,9.0,72,0.00,,FEW047,0.00,VWS V14.01,2013-02-02 10:44:00,
2013-02-02 05:49:00,14.3,6.9,30.15,WSW,238,4.0,9.0,72,0.00,,FEW110,0.00,VWS V14.01,2013-02-02 10:49:00,
2013-02-02 05:55:00,14.3,6.9,30.15,WSW,245,5.0,9.0,72,0.00,,FEW110,0.00,VWS V14.01,2013-02-02 10:55:00,
2013-02-02 06:00:00,14.3,6.9,30.15,WSW,253,4.0,10.0,72,0.00,,FEW110,0.00,VWS V14.01,2013-02-02 11:00:00,
2013-02-02 06:05:00,14.3,7.2,30.15,West,263,3.0,5.0,73,0.00,,FEW110,0.00,VWS V14.01,2013-02-02 11:05:00,
2013-02-02 06:10:00,14.3,6.9,30.14,WSW,255,5.0,8.0,72,0.00,,FEW110,0.00,VWS V14.01,2013-02-02 11:10:00,
2013-02-02 06:15:00,14.3,6.9,30.15,WSW,249,5.0,9.0,72,0.00,,FEW110,0.00,VWS V14.01,2013-02-02 11:15:00,
2013-02-02 06:20:00,14.3,6.9,30.15,WSW,255,4.0,9.0,72,0.00,,FEW110,0.00,VWS V14.01,2013-02-02 11:20:00,
2013-02-02 06:25:00,14.3,6.6,30.14,WSW,248,6.0,9.0,71,0.00,,FEW110,0.00,VWS V14.01,2013-02-02 11:25:00,
2013-02-02 06:30:00,14.4,7.0,30.14,WSW,245,8.0,9.0,72,0.00,,FEW110,0.00,VWS V14.01,2013-02-02 11:30:00,
2013-02-02 06:35:00,14.4,6.7,30.14,WSW,249,7.0,9.0,71,0.00,,FEW110,0.00,VWS V14.01,2013-02-02 11:35:00,
2013-02-02 06:41:00,14.4,7.0,30.14,WSW,248,5.0,9.0,72,0.00,,FEW110,0.00,VWS V14.01,2013-02-02 11:41:00,
2013-02-02 06:46:00,14.4,7.0,30.14,WSW,255,5.0,10.0,72,0.00,,FEW110,0.00,VWS V14.01,2013-02-02 11:46:00,
2013-02-02 06:51:00,14.4,7.0,30.14,WSW,252,5.0,10.0,72,0.00,,FEW110,0.00,VWS V14.01,2013-02-02 11:51:00,
2013-02-02 06:56:00,14.4,6.7,30.13,WSW,245,6.0,12.0,71,0.00,,FEW110,0.00,VWS V14.01,2013-02-02 11:56:00,
2013-02-02 07:00:00,14.7,7.0,30.13,WSW,247,8.0,12.0,71,0.00,,OVC,0.00,VWS V14.01,2013-02-02 12:00:00,
2013-02-02 07:01:00,14.4,7.0,30.13,WSW,253,7.0,12.0,72,0.00,,FEW110,0.00,VWS V14.01,2013-02-02 12:01:00,
2013-02-02 07:06:00,14.4,6.7,30.13,West,261,9.0,10.0,71,0.00,,FEW110,0.00,VWS V14.01,2013-02-02 12:06:00,
2013-02-02 07:11:00,14.4,6.7,30.14,WSW,257,6.0,11.0,71,0.00,,FEW110,0.00,VWS V14.01,2013-02-02 12:11:00,
2013-02-02 07:16:00,14.4,6.7,30.14,West,267,7.0,11.0,71,0.00,,FEW110,0.00,VWS V14.01,2013-02-02 12:16:00,
2013-02-02 07:22:00,14.4,7.0,30.14,West,266,7.0,11.0,72,0.00,,FEW110,0.00,VWS V14.01,2013-02-02 12:22:00,
2013-02-02 07:27:00,14.5,6.8,30.13,West,260,5.0,11.0,71,0.00,,FEW110,0.00,VWS V14.01,2013-02-02 12:27:00,
2013-02-02 07:30:00,14.9,7.2,30.12,SW,231,10.0,13.0,71,0.00,,OVC,0.00,VWS V14.01,2013-02-02 12:30:00,
2013-02-02 07:32:00,14.5,6.8,30.14,West,260,6.0,11.0,71,0.00,,FEW110,0.00,VWS V14.01,2013-02-02 12:32:00,
2013-02-02 07:37:00,14.4,6.7,30.14,WSW,238,7.0,11.0,71,0.00,,FEW110,0.00,VWS V14.01,2013-02-02 12:37:00,
2013-02-02 07:42:00,14.5,6.8,30.13,WSW,250,7.0,11.0,71,0.00,,FEW110,0.00,VWS V14.01,2013-02-02 12:42:00,
2013-02-02 07:47:00,14.6,6.9,30.13,West,262,5.0,11.0,71,0.00,,FEW110,0.00,VWS V14.01,2013-02-02 12:47:00,
2013-02-02 07:52:00,14.6,7.2,30.13,WSW,248,5.0,12.0,72,0.00,,FEW110,0.00,VWS V14.01,2013-02-02 12:52:00,
2013-02-02 07:57:00,14.7,7.0,30.13,WSW,239,10.0,12.0,71,0.00,,FEW110,0.00,VWS V14.01,2013-02-02 12:57:00,
2013-02-02 08:00:00,15.3,7.0,30.12,West,264,8.0,12.0,69,0.00,,OVC,0.00,VWS V14.01,2013-02-02 13:00:00,
2013-02-02 08:02:00,14.7,7.0,30.13,WSW,247,8.0,12.0,71,0.00,,FEW110,0.00,VWS V14.01,2013-02-02 13:02:00,
2013-02-02 08:07:00,14.7,7.0,30.13,WSW,242,7.0,12.0,71,0.00,,FEW110,0.00,VWS V14.01,2013-02-02 13:07:00,
2013-02-02 08:13:00,14.8,7.1,30.13,West,270,5.0,12.0,71,0.00,,FEW110,0.00,VWS V14.01,2013-02-02 13:13:00,
2013-02-02 08:18:00,14.8,7.1,30.13,WSW,250,6.0,13.0,71,0.00,,FEW110,0.00,VWS V14.01,2013-02-02 13:18:00,
2013-02-02 08:23:00,14.8,7.1,30.12,WSW,239,8.0,13.0,71,0.00,,FEW110,0.00,VWS V14.01,2013-02-02 13:23:00,
2013-02-02 08:28:00,14.8,7.1,30.12,WSW,238,6.0,13.0,71,0.00,,FEW110,0.00,VWS V14.01,2013-02-02 13:28:00,
2013-02-02 08:30:00,16.4,7.7,30.10,WSW,248,10.0,14.0,68,0.00,,OVC,0.00,VWS V14.01,2013-02-02 13:30:00,
2013-02-02 08:33:00,14.9,7.2,30.12,West,275,6.0,12.0,71,0.00,,BKN110,0.00,VWS V14.01,2013-02-02 13:33:00,
2013-02-02 08:38:00,15.0,7.3,30.12,West,260,8.0,12.0,71,0.00,,BKN110,0.00,VWS V14.01,2013-02-02 13:38:00,
2013-02-02 08:43:00,15.0,7.3,30.12,WSW,256,7.0,12.0,71,0.00,,BKN110,0.00,VWS V14.01,2013-02-02 13:43:00,
2013-02-02 08:48:00,15.1,7.4,30.12,WSW,250,8.0,12.0,71,0.00,,OVC100,0.00,VWS V14.01,2013-02-02 13:48:00,
2013-02-02 08:54:00,15.2,7.2,30.12,WSW,248,6.0,12.0,70,0.00,,OVC100,0.00,VWS V14.01,2013-02-02 13:54:00,
2013-02-02 08:59:00,15.3,7.3,30.12,WSW,248,7.0,12.0,70,0.00,,OVC100,0.00,VWS V14.01,2013-02-02 13:59:00,
2013-02-02 09:00:00,16.7,7.7,30.09,WSW,245,8.0,13.0,67,0.00,,OVC,0.00,VWS V14.01,2013-02-02 14:00:00,
2013-02-02 09:04:00,15.3,7.0,30.12,West,278,6.0,13.0,69,0.00,,OVC100,0.00,VWS V14.01,2013-02-02 14:04:00,
2013-02-02 09:09:00,15.4,7.1,30.12,WSW,238,9.0,13.0,69,0.00,,OVC100,0.00,VWS V14.01,2013-02-02 14:09:00,
2013-02-02 09:14:00,15.6,7.3,30.11,WSW,250,8.0,14.0,69,0.00,,OVC100,0.00,VWS V14.01,2013-02-02 14:14:00,
2013-02-02 09:19:00,15.8,7.4,30.11,WSW,255,5.0,14.0,69,0.00,,OVC100,0.00,VWS V14.01,2013-02-02 14:19:00,
2013-02-02 09:24:00,16.0,7.6,30.11,WSW,257,7.0,14.0,69,0.00,,OVC100,0.00,VWS V14.01,2013-02-02 14:24:00,
2013-02-02 09:29:00,16.2,7.5,30.10,WSW,252,6.0,14.0,68,0.00,,OVC100,0.00,VWS V14.01,2013-02-02 14:29:00,
2013-02-02 09:30:00,17.7,8.6,30.09,WSW,246,7.0,13.0,67,0.00,,OVC,0.00,VWS V14.01,2013-02-02 14:30:00,
2013-02-02 09:34:00,16.6,7.9,30.10,WSW,252,9.0,10.0,68,0.00,,OVC100,0.00,VWS V14.01,2013-02-02 14:34:00,
2013-02-02 09:40:00,16.7,8.0,30.10,WSW,238,11.0,12.0,68,0.00,,OVC100,0.00,VWS V14.01,2013-02-02 14:40:00,
2013-02-02 09:45:00,16.7,7.7,30.10,WSW,238,9.0,12.0,67,0.00,,OVC095,0.00,VWS V14.01,2013-02-02 14:45:00,
2013-02-02 09:50:00,16.6,7.6,30.10,SW,232,10.0,13.0,67,0.00,,OVC095,0.00,VWS V14.01,2013-02-02 14:50:00,
2013-02-02 09:55:00,16.7,7.7,30.10,WSW,255,6.0,13.0,67,0.00,,OVC095,0.00,VWS V14.01,2013-02-02 14:55:00,
2013-02-02 10:00:00,16.7,7.7,30.10,WSW,252,8.0,13.0,67,0.00,,OVC095,0.00,VWS V14.01,2013-02-02 15:00:00,
2013-02-02 10:05:00,16.8,7.8,30.09,WSW,245,7.0,13.0,67,0.00,,OVC095,0.00,VWS V14.01,2013-02-02 15:05:00,
2013-02-02 10:10:00,16.9,7.8,30.09,WSW,242,6.0,13.0,67,0.00,,OVC095,0.00,VWS V14.01,2013-02-02 15:10:00,
2013-02-02 10:15:00,17.1,8.1,30.09,West,259,6.0,13.0,67,0.00,,OVC095,0.00,VWS V14.01,2013-02-02 15:15:00,
2013-02-02 10:20:00,17.2,7.8,30.09,SW,224,8.0,13.0,66,0.00,,OVC095,0.00,VWS V14.01,2013-02-02 15:20:00,
2013-02-02 10:25:00,17.3,7.9,30.09,WSW,242,9.0,13.0,66,0.00,,OVC095,0.00,VWS V14.01,2013-02-02 15:25:00,
2013-02-02 10:30:00,18.2,9.4,30.08,WSW,245,8.0,12.0,68,0.00,,OVC,0.00,VWS V14.01,2013-02-02 15:30:00,
2013-02-02 10:31:00,17.7,8.9,30.09,West,259,7.0,13.0,68,0.00,,OVC095,0.00,VWS V14.01,2013-02-02 15:31:00,
2013-02-02 10:36:00,17.7,8.3,30.09,WSW,242,6.0,11.0,66,0.00,,OVC095,0.00,VWS V14.01,2013-02-02 15:36:00,
2013-02-02 10:41:00,17.7,8.3,30.08,WSW,252,7.0,11.0,66,0.00,,OVC095,0.00,VWS V14.01,2013-02-02 15:41:00,
2013-02-02 10:46:00,17.9,8.1,30.08,SW,235,8.0,11.0,65,0.00,,OVC080,0.00,VWS V14.01,2013-02-02 15:46:00,
2013-02-02 10:51:00,18.3,8.9,30.09,WSW,245,9.0,11.0,66,0.00,,OVC080,0.00,VWS V14.01,2013-02-02 15:51:00,
2013-02-02 10:56:00,18.7,9.6,30.08,SW,226,8.0,11.0,67,0.00,,OVC080,0.00,VWS V14.01,2013-02-02 15:56:00,
2013-02-02 11:00:00,18.5,11.3,30.06,SW,232,5.0,13.0,73,0.00,,OVC,0.00,VWS V14.01,2013-02-02 16:00:00,
2013-02-02 11:01:00,18.7,9.2,30.08,WSW,253,5.0,11.0,66,0.00,,OVC080,0.00,VWS V14.01,2013-02-02 16:01:00,
2013-02-02 11:07:00,18.9,9.8,30.08,SW,232,9.0,9.0,67,0.00,,OVC080,0.00,VWS V14.01,2013-02-02 16:07:00,
2013-02-02 11:12:00,18.9,9.1,30.08,SW,233,9.0,11.0,65,0.00,,OVC080,0.00,VWS V14.01,2013-02-02 16:12:00,
2013-02-02 11:17:00,19.0,9.5,30.08,SW,236,12.0,12.0,66,0.00,,OVC080,0.00,VWS V14.01,2013-02-02 16:17:00,
2013-02-02 11:22:00,18.6,9.1,30.08,WSW,242,10.0,12.0,66,0.00,,OVC080,0.00,VWS V14.01,2013-02-02 16:22:00,
2013-02-02 11:27:00,18.4,9.3,30.08,West,267,6.0,12.0,67,0.00,,OVC080,0.00,VWS V14.01,2013-02-02 16:27:00,
2013-02-02 11:30:00,20.0,11.5,30.04,West,271,6.0,10.0,69,0.00,,OVC,0.00,VWS V14.01,2013-02-02 16:30:00,
2013-02-02 11:32:00,18.2,9.4,30.08,WSW,245,8.0,12.0,68,0.00,,OVC080,0.00,VWS V14.01,2013-02-02 16:32:00,
2013-02-02 11:37:00,18.1,10.0,30.07,West,262,4.0,9.0,70,0.00,,OVC080,0.00,VWS V14.01,2013-02-02 16:37:00,
2013-02-02 11:43:00,17.9,9.8,30.07,West,279,8.0,13.0,70,0.00,,OVC080,0.00,VWS V14.01,2013-02-02 16:43:00,
2013-02-02 11:48:00,17.8,10.0,30.07,West,263,7.0,13.0,71,0.00,,OVC065,0.00,VWS V14.01,2013-02-02 16:48:00,
2013-02-02 11:53:00,17.8,10.0,30.06,SW,219,7.0,13.0,71,0.00,,OVC065,0.00,VWS V14.01,2013-02-02 16:53:00,
2013-02-02 11:58:00,17.9,10.4,30.06,WSW,245,5.0,13.0,72,0.00,,OVC065,0.00,VWS V14.01,2013-02-02 16:58:00,
2013-02-02 12:00:00,20.1,10.9,30.02,WSW,238,8.0,11.0,67,0.00,,OVC,0.00,VWS V14.01,2013-02-02 17:00:00,
2013-02-02 12:03:00,18.5,11.3,30.06,SW,236,6.0,6.0,73,0.00,,OVC065,0.00,VWS V14.01,2013-02-02 17:03:00,
2013-02-02 12:08:00,18.7,10.9,30.06,WSW,253,6.0,10.0,71,0.00,,OVC065,0.00,VWS V14.01,2013-02-02 17:08:00,
2013-02-02 12:13:00,18.7,11.2,30.05,WSW,255,6.0,10.0,72,0.00,,OVC065,0.00,VWS V14.01,2013-02-02 17:13:00,
2013-02-02 12:18:00,18.9,11.1,30.05,WSW,246,8.0,10.0,71,0.00,,OVC065,0.00,VWS V14.01,2013-02-02 17:18:00,
2013-02-02 12:23:00,19.3,11.1,30.05,WSW,252,6.0,10.0,70,0.00,,OVC065,0.00,VWS V14.01,2013-02-02 17:23:00,
2013-02-02 12:29:00,19.7,11.5,30.04,West,262,5.0,10.0,70,0.00,,OVC065,0.00,VWS V14.01,2013-02-02 17:29:00,
2013-02-02 12:30:00,21.3,11.7,30.00,WSW,249,4.0,11.0,66,0.00,,OVC,0.00,VWS V14.01,2013-02-02 17:30:00,
2013-02-02 12:34:00,20.0,11.1,30.04,WSW,247,5.0,7.0,68,0.00,,OVC065,0.00,VWS V14.01,2013-02-02 17:34:00,
2013-02-02 12:39:00,20.0,11.1,30.03,SW,236,9.0,10.0,68,0.00,,OVC065,0.00,VWS V14.01,2013-02-02 17:39:00,
2013-02-02 12:44:00,20.0,11.5,30.03,SW,233,10.0,11.0,69,0.00,,OVC065,0.00,VWS V14.01,2013-02-02 17:44:00,
2013-02-02 12:49:00,20.2,11.7,30.03,WSW,247,7.0,11.0,69,0.00,,OVC060,0.00,VWS V14.01,2013-02-02 17:49:00,
2013-02-02 12:54:00,20.3,11.4,30.02,WSW,248,8.0,11.0,68,0.00,,OVC060,0.00,VWS V14.01,2013-02-02 17:54:00,
2013-02-02 12:59:00,20.2,11.4,30.02,WSW,256,5.0,11.0,68,0.00,,OVC060,0.00,VWS V14.01,2013-02-02 17:59:00,
2013-02-02 13:00:00,21.7,13.4,30.00,West,260,4.0,11.0,70,0.00,,OVC,0.00,VWS V14.01,2013-02-02 18:00:00,
2013-02-02 13:04:00,20.2,11.7,30.02,WSW,245,4.0,8.0,69,0.00,,OVC060,0.00,VWS V14.01,2013-02-02 18:04:00,
2013-02-02 13:10:00,20.4,11.9,30.01,West,266,8.0,11.0,69,0.00,,OVC060,0.00,VWS V14.01,2013-02-02 18:10:00,
2013-02-02 13:15:00,20.4,10.9,30.01,WSW,243,9.0,11.0,66,0.00,,OVC060,0.00,VWS V14.01,2013-02-02 18:15:00,
2013-02-02 13:20:00,20.6,11.4,30.01,SW,236,6.0,11.0,67,0.00,,OVC060,0.00,VWS V14.01,2013-02-02 18:20:00,
2013-02-02 13:25:00,20.9,11.3,30.01,SW,233,8.0,11.0,66,0.00,,OVC060,0.00,VWS V14.01,2013-02-02 18:25:00,
2013-02-02 13:30:00,21.2,11.3,30.00,WSW,248,4.0,11.0,65,0.00,,OVC060,0.00,VWS V14.01,2013-02-02 18:30:00,
2013-02-02 13:35:00,21.4,11.5,30.00,West,259,5.0,8.0,65,0.00,,OVC060,0.00,VWS V14.01,2013-02-02 18:35:00,
2013-02-02 13:40:00,21.5,11.2,30.00,WSW,241,6.0,11.0,64,0.00,,OVC060,0.00,VWS V14.01,2013-02-02 18:40:00,
2013-02-02 13:45:00,21.0,11.4,30.00,WSW,249,5.0,11.0,66,0.00,,OVC047,0.00,VWS V14.01,2013-02-02 18:45:00,
2013-02-02 13:50:00,21.0,11.4,30.00,SW,229,5.0,11.0,66,0.00,,OVC047,0.00,VWS V14.01,2013-02-02 18:50:00,
2013-02-02 13:56:00,21.2,12.3,30.00,West,260,3.0,11.0,68,0.00,,OVC047,0.00,VWS V14.01,2013-02-02 18:56:00,
2013-02-02 14:01:00,21.5,12.6,30.00,West,262,4.0,11.0,68,0.00,,OVC047,0.00,VWS V14.01,2013-02-02 19:01:00,
2013-02-02 14:06:00,21.7,12.8,29.99,SW,224,4.0,6.0,68,0.00,,OVC047,0.00,VWS V14.01,2013-02-02 19:06:00,
2013-02-02 14:11:00,21.5,12.3,29.99,WSW,239,6.0,9.0,67,0.00,,OVC047,0.00,VWS V14.01,2013-02-02 19:11:00,
2013-02-02 14:16:00,21.4,13.1,29.99,WSW,241,3.0,9.0,70,0.00,,OVC047,0.00,VWS V14.01,2013-02-02 19:16:00,
2013-02-02 14:21:00,21.1,13.2,29.99,WSW,239,7.0,9.0,71,0.00,,OVC047,0.00,VWS V14.01,2013-02-02 19:21:00,
2013-02-02 14:26:00,21.1,13.2,29.99,WSW,242,6.0,9.0,71,0.00,,OVC047,0.00,VWS V14.01,2013-02-02 19:26:00,
2013-02-02 14:30:00,20.7,14.9,29.98,WSW,249,3.0,9.0,78,0.00,,OVC,0.00,VWS V14.01,2013-02-02 19:30:00,
2013-02-02 14:31:00,21.2,13.6,29.99,SW,228,5.0,9.0,72,0.00,,OVC047,0.00,VWS V14.01,2013-02-02 19:31:00,
2013-02-02 14:37:00,21.1,13.8,29.99,SW,226,5.0,6.0,73,0.00,,OVC047,0.00,VWS V14.01,2013-02-02 19:37:00,
2013-02-02 14:42:00,21.2,13.9,29.99,WSW,238,5.0,8.0,73,0.00,,OVC047,0.00,VWS V14.01,2013-02-02 19:42:00,
2013-02-02 14:47:00,21.0,13.7,29.99,WSW,239,7.0,10.0,73,0.00,,OVC044,0.00,VWS V14.01,2013-02-02 19:47:00,
2013-02-02 14:52:00,21.0,13.7,29.99,WSW,239,6.0,10.0,73,0.00,,OVC044,0.00,VWS V14.01,2013-02-02 19:52:00,
2013-02-02 14:57:00,20.8,13.8,29.99,WSW,248,8.0,10.0,74,0.00,,OVC044,0.00,VWS V14.01,2013-02-02 19:57:00,
2013-02-02 15:00:00,20.7,15.2,29.98,WSW,253,3.0,7.0,79,0.00,,OVC,0.00,VWS V14.01,2013-02-02 20:00:00,
2013-02-02 15:02:00,20.6,13.9,29.98,WSW,242,5.0,10.0,75,0.00,,OVC044,0.00,VWS V14.01,2013-02-02 20:02:00,
2013-02-02 15:07:00,20.7,14.4,29.99,SW,226,4.0,6.0,76,0.00,,OVC044,0.00,VWS V14.01,2013-02-02 20:07:00,
2013-02-02 15:12:00,20.7,14.4,29.98,SW,233,4.0,7.0,76,0.00,,OVC044,0.00,VWS V14.01,2013-02-02 20:12:00,
2013-02-02 15:18:00,20.7,14.6,29.98,SW,231,7.0,9.0,77,0.00,,OVC044,0.00,VWS V14.01,2013-02-02 20:18:00,
2013-02-02 15:23:00,20.6,14.6,29.98,WSW,250,5.0,9.0,77,0.00,,OVC044,0.00,VWS V14.01,2013-02-02 20:23:00,
2013-02-02 15:28:00,20.6,14.8,29.98,SW,228,5.0,9.0,78,0.00,,OVC044,0.00,VWS V14.01,2013-02-02 20:28:00,
2013-02-02 15:30:00,20.4,16.1,29.98,WSW,242,5.0,5.0,83,0.00,,OVC,0.00,VWS V14.01,2013-02-02 20:30:00,
2013-02-02 15:33:00,20.7,14.9,29.98,WSW,238,4.0,4.0,78,0.00,,OVC044,0.00,VWS V14.01,2013-02-02 20:33:00,
2013-02-02 15:38:00,20.6,15.1,29.98,WSW,255,3.0,6.0,79,0.00,,OVC044,0.00,VWS V14.01,2013-02-02 20:38:00,
2013-02-02 15:43:00,20.7,15.2,29.98,WSW,244,4.0,6.0,79,0.00,,OVC044,0.00,VWS V14.01,2013-02-02 20:43:00,
2013-02-02 15:48:00,20.8,15.0,29.98,SW,236,5.0,6.0,78,0.00,,,0.00,VWS V14.01,2013-02-02 20:48:00,
2013-02-02 15:53:00,20.7,15.2,29.98,WSW,247,3.0,7.0,79,0.00,,,0.00,VWS V14.01,2013-02-02 20:53:00,
2013-02-02 15:58:00,20.7,15.5,29.98,WSW,249,3.0,7.0,80,0.00,,,0.00,VWS V14.01,2013-02-02 20:58:00,
2013-02-02 16:00:00,20.2,16.4,29.98,WSW,255,1.0,6.0,85,0.00,,OVC,0.00,VWS V14.01,2013-02-02 21:00:00,
2013-02-02 16:04:00,20.7,15.5,29.98,WSW,247,3.0,4.0,80,0.00,,,0.00,VWS V14.01,2013-02-02 21:04:00,
2013-02-02 16:09:00,20.7,15.8,29.98,WSW,255,3.0,5.0,81,0.00,,,0.00,VWS V14.01,2013-02-02 21:09:00,
2013-02-02 16:14:00,20.6,16.0,29.98,WSW,245,3.0,5.0,82,0.00,,,0.00,VWS V14.01,2013-02-02 21:14:00,
2013-02-02 16:19:00,20.5,15.9,29.98,WSW,240,2.0,5.0,82,0.00,,,0.00,VWS V14.01,2013-02-02 21:19:00,
2013-02-02 16:24:00,20.5,16.2,29.98,WSW,249,3.0,5.0,83,0.00,,,0.00,VWS V14.01,2013-02-02 21:24:00,
2013-02-02 16:29:00,20.4,16.1,29.98,WSW,256,3.0,5.0,83,0.00,,,0.00,VWS V14.01,2013-02-02 21:29:00,
2013-02-02 16:30:00,19.9,16.4,29.98,WSW,239,4.0,5.0,86,0.00,,OVC,0.00,VWS V14.01,2013-02-02 21:30:00,
2013-02-02 16:34:00,20.4,15.8,29.98,WSW,243,3.0,6.0,82,0.00,,,0.00,VWS V14.01,2013-02-02 21:34:00,
2013-02-02 16:39:00,20.4,15.8,29.98,WSW,238,2.0,6.0,82,0.00,,,0.00,VWS V14.01,2013-02-02 21:39:00,
2013-02-02 16:45:00,20.4,16.1,29.98,WSW,242,3.0,6.0,83,0.00,,,0.00,VWS V14.01,2013-02-02 21:45:00,
2013-02-02 16:50:00,20.4,16.1,29.98,WSW,242,4.0,6.0,83,0.00,,,0.00,VWS V14.01,2013-02-02 21:50:00,
2013-02-02 16:55:00,20.2,16.1,29.98,WSW,248,3.0,6.0,84,0.00,,,0.00,VWS V14.01,2013-02-02 21:55:00,
2013-02-02 17:00:00,20.2,16.1,29.98,WSW,245,1.0,6.0,84,0.00,,,0.00,VWS V14.01,2013-02-02 22:00:00,
2013-02-02 17:05:00,20.2,16.4,29.98,WSW,247,3.0,3.0,85,0.00,,,0.00,VWS V14.01,2013-02-02 22:05:00,
2013-02-02 17:10:00,20.2,16.4,29.98,SW,233,3.0,4.0,85,0.00,,,0.00,VWS V14.01,2013-02-02 22:10:00,
2013-02-02 17:15:00,20.2,16.4,29.98,WSW,246,3.0,4.0,85,0.00,,,0.00,VWS V14.01,2013-02-02 22:15:00,
2013-02-02 17:20:00,20.0,16.2,29.98,WSW,241,3.0,4.0,85,0.00,,,0.00,VWS V14.01,2013-02-02 22:20:00,
2013-02-02 17:25:00,20.0,16.5,29.98,WSW,252,2.0,5.0,86,0.00,,,0.00,VWS V14.01,2013-02-02 22:25:00,
2013-02-02 17:30:00,19.7,16.5,29.99,WSW,247,1.0,4.0,87,0.00,,OVC,0.00,VWS V14.01,2013-02-02 22:30:00,
2013-02-02 17:31:00,19.9,16.4,29.98,West,259,3.0,5.0,86,0.00,,,0.00,VWS V14.01,2013-02-02 22:31:00,
2013-02-02 17:36:00,19.9,16.4,29.98,West,262,2.0,4.0,86,0.00,,,0.00,VWS V14.01,2013-02-02 22:36:00,
2013-02-02 17:41:00,19.8,16.3,29.98,WSW,242,3.0,4.0,86,0.00,,,0.00,VWS V14.01,2013-02-02 22:41:00,
2013-02-02 17:46:00,19.7,16.5,29.98,WSW,238,3.0,4.0,87,0.00,,,0.00,VWS V14.01,2013-02-02 22:46:00,
2013-02-02 17:51:00,19.7,16.5,29.99,WSW,242,2.0,4.0,87,0.00,,,0.00,VWS V14.01,2013-02-02 22:51:00,
2013-02-02 17:56:00,19.7,16.7,29.98,WSW,239,2.0,4.0,88,0.00,,,0.00,VWS V14.01,2013-02-02 22:56:00,
2013-02-02 18:00:00,19.9,16.1,29.99,WSW,245,2.0,5.0,85,0.00,,OVC,0.00,VWS V14.01,2013-02-02 23:00:00,
2013-02-02 18:01:00,19.6,16.6,29.99,SW,226,1.0,4.0,88,0.00,,,0.00,VWS V14.01,2013-02-02 23:01:00,
2013-02-02 18:06:00,19.6,16.6,29.98,WSW,242,1.0,1.0,88,0.00,,,0.00,VWS V14.01,2013-02-02 23:06:00,
2013-02-02 18:11:00,19.6,16.6,29.98,WSW,245,0.0,1.0,88,0.00,,,0.00,VWS V14.01,2013-02-02 23:11:00,
2013-02-02 18:17:00,19.6,16.9,29.99,SW,231,3.0,3.0,89,0.00,,,0.00,VWS V14.01,2013-02-02 23:17:00,
2013-02-02 18:22:00,19.6,16.6,29.99,WSW,238,3.0,4.0,88,0.00,,,0.00,VWS V14.01,2013-02-02 23:22:00,
2013-02-02 18:27:00,19.7,16.5,29.99,WSW,242,2.0,4.0,87,0.00,,,0.00,VWS V14.01,2013-02-02 23:27:00,
2013-02-02 18:30:00,19.9,15.9,29.99,WSW,247,1.0,4.0,84,0.00,,OVC,0.00,VWS V14.01,2013-02-02 23:30:00,
2013-02-02 18:32:00,19.7,16.5,29.99,WSW,247,2.0,4.0,87,0.00,,,0.00,VWS V14.01,2013-02-02 23:32:00,
2013-02-02 18:37:00,19.8,16.6,29.99,WSW,252,2.0,2.0,87,0.00,,,0.00,VWS V14.01,2013-02-02 23:37:00,
2013-02-02 18:42:00,19.8,16.3,29.99,WSW,249,1.0,2.0,86,0.00,,,0.00,VWS V14.01,2013-02-02 23:42:00,
2013-02-02 18:47:00,19.8,16.3,29.99,WSW,252,2.0,5.0,86,0.00,,,0.00,VWS V14.01,2013-02-02 23:47:00,
2013-02-02 18:53:00,19.8,16.0,29.99,SW,231,4.0,5.0,85,0.00,,,0.00,VWS V14.01,2013-02-02 23:53:00,
2013-02-02 18:58:00,19.8,16.0,29.99,WSW,238,2.0,5.0,85,0.00,,,0.00,VWS V14.01,2013-02-02 23:58:00,
2013-02-02 19:00:00,19.8,15.5,29.99,WSW,247,0.0,4.0,83,0.00,,OVC,0.00,VWS V14.01,2013-02-03 00:00:00,
2013-02-02 19:03:00,19.9,16.1,29.99,WSW,253,2.0,2.0,85,0.00,,,0.00,VWS V14.01,2013-02-03 00:03:00,
2013-02-02 19:08:00,19.9,16.1,29.99,WSW,252,1.0,4.0,85,0.00,,,0.00,VWS V14.01,2013-02-03 00:08:00,
2013-02-02 19:13:00,19.9,16.1,29.99,WSW,242,2.0,4.0,85,0.00,,,0.00,VWS V14.01,2013-02-03 00:13:00,
2013-02-02 19:18:00,19.8,16.0,29.99,SW,233,2.0,4.0,85,0.00,,,0.00,VWS V14.01,2013-02-03 00:18:00,
2013-02-02 19:23:00,19.9,15.9,29.99,WSW,246,1.0,4.0,84,0.00,,,0.00,VWS V14.01,2013-02-03 00:23:00,
2013-02-02 19:28:00,19.9,15.9,29.99,WSW,247,2.0,4.0,84,0.00,,,0.00,VWS V14.01,2013-02-03 00:28:00,
2013-02-02 19:30:00,19.2,14.9,29.99,SW,231,0.0,1.0,83,0.00,,OVC,0.00,VWS V14.01,2013-02-03 00:30:00,
2013-02-02 19:33:00,19.9,15.9,29.99,WSW,242,2.0,2.0,84,0.00,,,0.00,VWS V14.01,2013-02-03 00:33:00,
2013-02-02 19:39:00,19.9,15.9,29.99,WSW,245,1.0,4.0,84,0.00,,,0.00,VWS V14.01,2013-02-03 00:39:00,
2013-02-02 19:44:00,19.9,15.9,29.99,WSW,242,1.0,4.0,84,0.00,,,0.00,VWS V14.01,2013-02-03 00:44:00,
2013-02-02 19:49:00,19.9,15.6,29.99,WSW,246,1.0,4.0,83,0.00,,OVC080,0.00,VWS V14.01,2013-02-03 00:49:00,
2013-02-02 19:54:00,19.8,15.5,29.99,WSW,238,2.0,4.0,83,0.00,,OVC080,0.00,VWS V14.01,2013-02-03 00:54:00,
2013-02-02 19:59:00,19.8,15.8,29.99,SW,235,2.0,4.0,84,0.00,,OVC080,0.00,VWS V14.01,2013-02-03 00:59:00,
2013-02-02 20:00:00,17.5,14.0,29.99,SW,232,0.0,0.0,86,0.00,,OVC,0.00,VWS V14.01,2013-02-03 01:00:00,
2013-02-02 20:04:00,19.8,15.8,29.99,WSW,248,1.0,1.0,84,0.00,,OVC080,0.00,VWS V14.01,2013-02-03 01:04:00,
2013-02-02 20:09:00,19.7,15.7,29.99,SW,231,0.0,1.0,84,0.00,,OVC080,0.00,VWS V14.01,2013-02-03 01:09:00,
2013-02-02 20:14:00,19.6,15.6,29.99,SW,230,0.0,1.0,84,0.00,,OVC080,0.00,VWS V14.01,2013-02-03 01:14:00,
2013-02-02 20:20:00,19.6,15.6,29.99,SW,231,0.0,1.0,84,0.00,,OVC080,0.00,VWS V14.01,2013-02-03 01:20:00,
2013-02-02 20:25:00,19.5,15.2,29.99,SW,232,0.0,1.0,83,0.00,,OVC080,0.00,VWS V14.01,2013-02-03 01:25:00,
2013-02-02 20:30:00,19.3,15.0,29.99,SW,232,0.0,1.0,83,0.00,,OVC080,0.00,VWS V14.01,2013-02-03 01:30:00,
2013-02-02 20:35:00,19.1,14.8,29.99,SW,232,0.0,0.0,83,0.00,,OVC080,0.00,VWS V14.01,2013-02-03 01:35:00,
2013-02-02 20:40:00,18.8,14.8,29.99,SW,232,0.0,0.0,84,0.00,,OVC080,0.00,VWS V14.01,2013-02-03 01:40:00,
2013-02-02 20:45:00,18.5,14.5,29.99,SW,232,0.0,0.0,84,0.00,,OVC080,0.00,VWS V14.01,2013-02-03 01:45:00,
2013-02-02 20:50:00,18.1,14.4,29.99,SW,232,0.0,0.0,85,0.00,,OVC080,0.00,VWS V14.01,2013-02-03 01:50:00,
2013-02-02 20:55:00,17.9,14.4,29.99,SW,231,0.0,0.0,86,0.00,,OVC080,0.00,VWS V14.01,2013-02-03 01:55:00,
2013-02-02 21:00:00,18.3,14.3,29.98,WSW,252,1.0,4.0,84,0.00,,OVC,0.00,VWS V14.01,2013-02-03 02:00:00,
2013-02-02 21:01:00,17.6,14.1,29.99,SW,231,0.0,0.0,86,0.00,,OVC080,0.00,VWS V14.01,2013-02-03 02:01:00,
2013-02-02 21:06:00,17.4,13.9,29.99,SW,232,0.0,0.0,86,0.00,,OVC080,0.00,VWS V14.01,2013-02-03 02:06:00,
2013-02-02 21:11:00,17.2,14.0,29.99,SW,232,0.0,0.0,87,0.00,,OVC080,0.00,VWS V14.01,2013-02-03 02:11:00,
2013-02-02 21:16:00,17.0,13.8,29.99,SW,232,0.0,0.0,87,0.00,,OVC080,0.00,VWS V14.01,2013-02-03 02:16:00,
2013-02-02 21:21:00,17.1,14.2,29.99,West,260,0.0,0.0,88,0.00,,OVC080,0.00,VWS V14.01,2013-02-03 02:21:00,
2013-02-02 21:26:00,17.5,14.6,29.99,West,263,0.0,0.0,88,0.00,,OVC080,0.00,VWS V14.01,2013-02-03 02:26:00,
2013-02-02 21:30:00,17.6,13.9,29.97,West,263,1.0,3.0,85,0.00,,OVC,0.00,VWS V14.01,2013-02-03 02:30:00,
2013-02-02 21:32:00,17.7,14.5,29.99,West,272,1.0,1.0,87,0.00,,OVC080,0.00,VWS V14.01,2013-02-03 02:32:00,
2013-02-02 21:37:00,18.0,14.5,29.99,WSW,257,1.0,2.0,86,0.00,,OVC080,0.00,VWS V14.01,2013-02-03 02:37:00,
2013-02-02 21:42:00,18.3,14.6,29.98,WSW,250,1.0,2.0,85,0.00,,OVC080,0.00,VWS V14.01,2013-02-03 02:42:00,
2013-02-02 21:48:00,18.4,14.6,29.99,WSW,249,1.0,3.0,85,0.00,,OVC085,0.00,VWS V14.01,2013-02-03 02:48:00,
2013-02-02 21:53:00,18.5,14.8,29.98,West,269,2.0,4.0,85,0.00,,OVC085,0.00,VWS V14.01,2013-02-03 02:53:00,
2013-02-02 21:58:00,18.5,14.5,29.98,WSW,253,1.0,4.0,84,0.00,,OVC085,0.00,VWS V14.01,2013-02-03 02:58:00,
2013-02-02 22:00:00,16.5,12.8,29.96,West,262,0.0,2.0,85,0.00,,OVC,0.00,VWS V14.01,2013-02-03 03:00:00,
2013-02-02 22:03:00,18.3,14.3,29.98,WSW,253,1.0,1.0,84,0.00,,OVC085,0.00,VWS V14.01,2013-02-03 03:03:00,
2013-02-02 22:08:00,18.3,14.3,29.98,WSW,255,1.0,1.0,84,0.00,,OVC085,0.00,VWS V14.01,2013-02-03 03:08:00,
2013-02-02 22:13:00,18.4,14.6,29.98,WSW,255,1.0,3.0,85,0.00,,OVC085,0.00,VWS V14.01,2013-02-03 03:13:00,
2013-02-02 22:18:00,18.3,14.3,29.98,WSW,247,1.0,3.0,84,0.00,,OVC085,0.00,VWS V14.01,2013-02-03 03:18:00,
2013-02-02 22:23:00,18.1,14.1,29.98,WSW,247,1.0,3.0,84,0.00,,OVC085,0.00,VWS V14.01,2013-02-03 03:23:00,
2013-02-02 22:28:00,17.8,13.8,29.97,WSW,257,1.0,3.0,84,0.00,,OVC085,0.00,VWS V14.01,2013-02-03 03:28:00,
2013-02-02 22:30:00,14.6,11.7,29.96,West,262,0.0,0.0,88,0.00,,OVC,0.00,VWS V14.01,2013-02-03 03:30:00,
2013-02-02 22:34:00,17.6,13.9,29.97,West,260,1.0,2.0,85,0.00,,OVC085,0.00,VWS V14.01,2013-02-03 03:34:00,
2013-02-02 22:39:00,17.5,13.8,29.97,WSW,253,1.0,2.0,85,0.00,,OVC085,0.00,VWS V14.01,2013-02-03 03:39:00,
2013-02-02 22:44:00,17.3,13.6,29.97,WSW,249,0.0,2.0,85,0.00,,OVC085,0.00,VWS V14.01,2013-02-03 03:44:00,
2013-02-02 22:49:00,17.2,13.7,29.97,West,262,0.0,2.0,86,0.00,,OVC080,0.00,VWS V14.01,2013-02-03 03:49:00,
2013-02-02 22:54:00,17.1,13.6,29.97,West,262,0.0,2.0,86,0.00,,OVC080,0.00,VWS V14.01,2013-02-03 03:54:00,
2013-02-02 22:59:00,16.8,13.4,29.96,West,262,0.0,2.0,86,0.00,,OVC080,0.00,VWS V14.01,2013-02-03 03:59:00,
2013-02-02 23:00:00,13.9,11.5,29.96,WNW,295,0.0,0.0,90,0.00,,OVC,0.00,VWS V14.01,2013-02-03 04:00:00,
2013-02-02 23:04:00,16.2,12.5,29.96,West,262,0.0,0.0,85,0.00,,OVC080,0.00,VWS V14.01,2013-02-03 04:04:00,
2013-02-02 23:10:00,15.8,12.4,29.96,West,262,0.0,0.0,86,0.00,,OVC080,0.00,VWS V14.01,2013-02-03 04:10:00,
2013-02-02 23:15:00,15.4,12.0,29.96,West,262,0.0,0.0,86,0.00,,OVC080,0.00,VWS V14.01,2013-02-03 04:15:00,
2013-02-02 23:20:00,15.0,11.8,29.96,West,262,0.0,0.0,87,0.00,,OVC080,0.00,VWS V14.01,2013-02-03 04:20:00,
2013-02-02 23:25:00,14.8,11.6,29.96,West,261,0.0,0.0,87,0.00,,OVC080,0.00,VWS V14.01,2013-02-03 04:25:00,
2013-02-02 23:30:00,14.7,11.8,29.96,West,262,0.0,0.0,88,0.00,,OVC080,0.00,VWS V14.01,2013-02-03 04:30:00,
2013-02-02 23:35:00,14.5,11.6,29.96,West,261,0.0,0.0,88,0.00,,OVC080,0.00,VWS V14.01,2013-02-03 04:35:00,
2013-02-02 23:40:00,14.2,11.3,29.96,West,262,0.0,0.0,88,0.00,,OVC080,0.00,VWS V14.01,2013-02-03 04:40:00,
2013-02-02 23:45:00,14.0,11.4,29.96,West,262,0.0,0.0,89,0.00,,OVC080,0.00,VWS V14.01,2013-02-03 04:45:00,
2013-02-02 23:50:00,13.9,11.3,29.96,WNW,295,0.0,0.0,89,0.00,,OVC080,0.00,VWS V14.01,2013-02-03 04:50:00,
2013-02-02 23:56:00,13.9,11.3,29.96,WNW,295,0.0,0.0,89,0.00,,OVC080,0.00,VWS V14.01,2013-02-03 04:56:00,